FW4251 Weather Reports


time (UTC)temp
C
wind
direction
speed
KPH
gust
KPH
rain 1hr
cm
rain 24hr
cm
rain mn
cm
humidity
%
barometer
mb
20211017154629 15 330 3.2 8.0 0.00 1.45 0.00 66 1008.1
20211017154052 15 336 1.6 9.7 0.00 1.45 0.00 65 1008.1
20211017153606 15 337 3.2 9.7 0.00 1.45 0.00 70 1008.1
20211017153055 15 344 0.0 9.7 0.00 1.45 0.00 68 1008.2
20211017152547 14 334 3.2 9.7 0.00 1.45 0.00 68 1008.3
20211017152046 14 219 0.0 9.7 0.00 1.45 0.00 75 1008.2
20211017151807 13 218 3.2 9.7 0.00 1.45 0.00 73 1008.5
20211017151052 13 217 0.0 8.0 0.00 1.45 0.00 78 1008.6
20211017150600 13 213 3.2 8.0 0.00 1.45 0.00 76 1008.5
20211017150200 13 220 0.0 6.4 0.00 1.45 0.00 75 1008.5
20211017145545 13 259 3.2 6.4 0.00 1.45 0.00 77 1008.4
20211017145104 13 208 0.0 8.0 0.00 1.45 0.00 80 1008.5
20211017144616 14 209 1.6 12.9 0.00 1.45 0.00 79 1008.6
20211017144044 14 194 3.2 12.9 0.00 1.45 0.00 77 1008.6
20211017143543 14 178 1.6 9.7 0.00 1.45 0.00 82 1008.5
20211017143054 13 233 3.2 9.7 0.00 1.45 0.00 82 1008.4
20211017142549 13 188 1.6 8.0 0.00 1.45 0.00 85 1008.5
20211017142042 12 221 1.6 14.5 0.00 1.45 0.00 83 1008.6
20211017141620 13 220 8.0 14.5 0.00 1.45 0.00 79 1008.7
20211017141043 13 227 4.8 12.9 0.00 1.45 0.00 81 1008.7
20211017140540 13 217 6.4 14.5 0.00 1.45 0.00 84 1008.6
20211017140100 12 190 8.0 14.5 0.00 1.45 0.00 86 1008.7
20211017135538 12 192 8.0 12.9 0.00 1.45 0.00 86 1008.7
20211017135038 12 208 6.4 12.9 0.00 1.45 0.00 87 1008.7
20211017134621 12 182 4.8 12.9 0.00 1.45 0.00 89 1008.8
20211017134042 12 234 6.4 14.5 0.00 1.45 0.00 88 1008.8
20211017133536 11 223 4.8 9.7 0.00 1.45 0.00 90 1008.8
20211017133055 11 232 3.2 9.7 0.00 1.45 0.00 89 1008.8
20211017132536 11 194 4.8 9.7 0.00 1.45 0.00 89 1008.8
20211017132042 11 198 1.6 6.4 0.00 1.45 0.00 90 1008.7
20211017131614 11 201 1.6 8.0 0.00 1.45 0.00 91 1008.7
20211017131033 11 227 3.2 8.0 0.00 1.45 0.00 93 1008.7
20211017130536 10 205 1.6 8.0 0.00 1.45 0.00 94 1008.7
20211017130037 10 225 3.2 8.0 0.00 1.45 0.00 94 1008.7
20211017125533 10 222 3.2 11.3 0.00 1.45 0.00 94 1008.6
20211017125032 10 194 4.8 11.3 0.00 1.45 0.00 94 1008.5
20211017124533 10 209 3.2 12.9 0.00 1.45 0.00 94 1008.5
20211017124032 10 192 8.0 12.9 0.00 1.45 0.00 94 1008.6
20211017123557 10 198 8.0 11.3 0.00 1.45 0.00 94 1008.6
20211017123141 10 180 4.8 9.7 0.00 1.45 0.00 95 1008.5
20211017122530 9 175 3.2 6.4 0.00 1.45 0.00 95 1008.4
20211017122034 9 225 1.6 4.8 0.00 1.45 0.00 95 1008.3
20211017121600 9 225 1.6 4.8 0.00 1.45 0.00 94 1008.4
20211017121029 8 211 0.0 4.8 0.00 1.45 0.00 94 1008.3
20211017120527 8 213 0.0 4.8 0.00 1.45 0.00 94 1008.3
20211017120052 8 209 0.0 3.2 0.00 1.45 0.00 94 1008.2
20211017115528 8 209 0.0 3.2 0.00 1.45 0.00 93 1008.1
20211017115025 8 209 0.0 3.2 0.00 1.45 0.00 93 1008.0
20211017114549 8 209 0.0 3.2 0.00 1.45 0.00 93 1007.9
20211017114029 8 207 0.0 4.8 0.00 1.45 0.00 93 1008.0
20211017113524 8 209 0.0 4.8 0.00 1.45 0.00 93 1008.0
20211017113059 8 205 0.0 3.2 0.00 1.45 0.00 93 1008.1
20211017112533 8 205 0.0 4.8 0.00 1.45 0.00 93 1008.0
20211017112024 8 205 3.2 4.8 0.00 1.45 0.00 93 1008.0
20211017111530 8 201 1.6 4.8 0.00 1.45 0.00 93 1008.0
20211017111020 8 200 1.6 4.8 0.00 1.45 0.00 93 1007.8
20211017110523 9 200 0.0 3.2 0.00 1.45 0.00 93 1007.9
20211017110032 9 200 0.0 4.8 0.00 1.45 0.00 93 1007.9
20211017105516 9 200 1.6 4.8 0.00 1.45 0.00 93 1007.9
20211017105016 9 121 0.0 3.2 0.00 1.45 0.00 93 1007.8
20211017104519 9 121 1.6 3.2 0.00 1.45 0.00 93 1007.8
20211017104015 9 119 1.6 3.2 0.00 1.45 0.00 93 1007.7
20211017103516 9 118 1.6 3.2 0.00 1.45 0.00 93 1007.8
20211017103038 9 118 0.0 3.2 0.00 1.45 0.00 93 1007.8
20211017102519 10 118 0.0 3.2 0.00 1.45 0.00 93 1007.8
20211017102025 10 118 0.0 3.2 0.00 1.45 0.00 92 1007.7
20211017101523 10 118 0.0 1.6 0.00 1.45 0.00 92 1007.7
20211017101012 10 118 0.0 3.2 0.00 1.45 0.00 92 1007.6
20211017100517 10 118 0.0 3.2 0.00 1.45 0.00 92 1007.6
20211017100043 10 118 1.6 4.8 0.00 1.45 0.00 92 1007.4
20211017095510 10 206 0.0 3.2 0.00 1.45 0.00 93 1007.4
20211017095009 10 207 0.0 1.6 0.00 1.45 0.00 93 1007.3
20211017094525 10 207 0.0 1.6 0.00 1.45 0.00 93 1007.3
20211017094009 10 207 0.0 1.6 0.00 1.45 0.00 93 1007.3
20211017093508 10 207 0.0 3.2 0.00 1.45 0.00 93 1007.4
20211017093009 10 207 0.0 4.8 0.00 1.45 0.00 93 1007.3
20211017092507 10 207 0.0 4.8 0.00 1.45 0.00 93 1007.3
20211017092007 10 207 0.0 4.8 0.00 1.45 0.00 93 1007.2
20211017091507 10 207 0.0 4.8 0.00 1.45 0.00 93 1007.2
20211017091006 10 206 0.0 6.4 0.00 1.45 0.00 93 1007.3
20211017090506 10 206 1.6 6.4 0.00 1.45 0.00 93 1007.0
20211017090011 10 201 3.2 6.4 0.00 1.45 0.00 93 1007.0
20211017085509 10 225 3.2 9.7 0.00 1.45 0.00 93 1006.9
20211017085005 9 233 1.6 9.7 0.00 1.45 0.00 94 1007.0
20211017084527 9 221 3.2 8.0 0.00 1.45 0.00 94 1007.0
20211017084009 9 225 3.2 8.0 0.00 1.45 0.00 94 1006.8
20211017083514 9 217 1.6 6.4 0.00 1.45 0.00 94 1006.9
20211017083011 9 211 3.2 4.8 0.00 1.45 0.00 93 1006.7
20211017082506 9 211 0.0 4.8 0.00 1.45 0.00 93 1006.7
20211017082003 9 211 1.6 4.8 0.00 1.45 0.00 93 1006.6
20211017081503 9 211 0.0 3.2 0.00 1.45 0.00 93 1006.6
20211017081011 9 211 0.0 3.2 0.00 1.45 0.00 93 1006.7
20211017080504 9 211 0.0 3.2 0.00 1.45 0.00 93 1006.7
20211017080003 9 211 0.0 6.4 0.00 1.85 0.00 93 1006.6
20211017075502 9 211 4.8 6.4 0.00 1.85 0.00 93 1006.6
20211017075109 9 236 1.6 4.8 0.00 1.85 0.00 93 1006.6
20211017074656 9 236 1.6 4.8 0.00 1.85 0.00 93 1006.5
20211017074115 9 236 1.6 4.8 0.00 1.85 0.00 93 1006.6
20211017073600 9 238 1.6 4.8 0.00 1.85 0.00 93 1006.6
20211017073138 10 238 1.6 4.8 0.00 1.85 0.00 93 1006.7
20211017072558 10 238 3.2 4.8 0.00 1.85 0.00 93 1006.7
20211017072101 10 252 0.0 4.8 0.00 1.85 0.00 93 1006.8
20211017071610 10 252 0.0 4.8 0.00 1.85 0.00 93 1006.6
20211017071110 10 253 0.0 3.2 0.00 1.85 0.00 93 1006.6
20211017070556 10 258 0.0 4.8 0.00 1.85 0.00 93 1006.6
20211017070130 10 258 1.6 6.4 0.00 1.85 0.00 93 1006.6
20211017065555 10 225 3.2 6.4 0.00 1.85 0.00 93 1006.5
20211017065102 10 229 3.2 8.0 0.00 1.85 0.00 93 1006.7
20211017064628 10 236 1.6 8.0 0.00 1.85 0.00 93 1006.7
20211017064059 10 205 1.6 3.2 0.00 1.85 0.00 93 1006.6
20211017063552 10 200 1.6 4.8 0.00 1.85 0.00 93 1006.6
20211017063124 10 200 0.0 4.8 0.00 1.85 0.00 93 1006.6
20211017062551 10 200 1.6 6.4 0.00 1.85 0.00 93 1006.6
20211017062116 10 194 1.6 6.4 0.00 1.85 0.00 92 1006.6
20211017061642 10 219 1.6 8.0 0.00 1.85 0.00 92 1006.7
20211017061048 10 196 4.8 8.0 0.00 1.85 0.00 92 1006.7
20211017060609 10 196 1.6 6.4 0.00 1.85 0.00 92 1006.7
20211017060054 10 218 3.2 6.4 0.00 1.85 0.00 92 1006.8
20211017055604 11 304 1.6 4.8 0.00 1.85 0.00 92 1006.8
20211017055055 11 319 1.6 4.8 0.00 1.85 0.00 93 1006.8
20211017054651 11 319 1.6 3.2 0.00 1.85 0.00 92 1006.6
20211017054041 11 319 1.6 3.2 0.00 1.85 0.00 93 1006.7
20211017053550 11 319 0.0 4.8 0.00 1.85 0.00 93 1006.7
20211017053132 11 319 0.0 4.8 0.00 1.85 0.00 93 1006.7
20211017052540 11 319 0.0 3.2 0.00 1.85 0.00 93 1006.8
20211017052039 12 319 0.0 3.2 0.00 1.85 0.00 93 1006.9
20211017051610 12 320 0.0 4.8 0.00 1.85 0.00 93 1006.9
20211017051105 12 320 0.0 4.8 0.00 1.85 0.00 93 1006.9
20211017050536 12 324 0.0 1.6 0.00 1.85 0.00 94 1007.0
20211017050115 12 324 0.0 6.4 0.00 1.85 0.00 94 1007.0
20211017045553 12 324 0.0 9.7 0.00 1.85 0.00 94 1006.9
20211017045039 12 325 3.2 12.9 0.00 1.85 0.00 94 1006.9
20211017044608 12 293 1.6 12.9 0.00 1.85 0.00 94 1007.0
20211017044032 12 233 0.0 4.8 0.00 1.85 0.00 94 1007.1
20211017043538 12 326 0.0 4.8 0.00 1.85 0.00 94 1007.1
20211017043038 12 326 0.0 4.8 0.00 1.85 0.00 94 1007.1
20211017042539 13 334 0.0 3.2 0.00 1.85 0.00 94 1007.0
20211017042036 13 334 0.0 3.2 0.00 1.85 0.00 94 1007.1
20211017041551 13 334 0.0 1.6 0.00 1.85 0.00 95 1006.9
20211017041032 13 334 0.0 1.6 0.00 1.85 0.00 94 1006.9
20211017040526 13 334 0.0 3.2 0.00 1.85 0.00 94 1006.9
20211017040029 13 334 1.6 4.8 0.00 1.85 0.00 95 1006.6
20211017035533 13 331 1.6 4.8 0.00 1.85 1.85 95 1006.4
20211017035023 13 169 0.0 3.2 0.00 1.85 1.85 95 1006.7
20211017034524 13 168 0.0 8.0 0.00 1.85 1.85 95 1006.5
20211017034022 13 166 3.2 8.0 0.00 1.85 1.85 95 1007.0
20211017033522 13 158 0.0 3.2 0.03 1.85 1.85 94 1006.9
20211017033047 13 158 1.6 4.8 0.03 1.85 1.85 94 1006.6
20211017032528 13 158 1.6 4.8 0.03 1.85 1.85 94 1007.6
20211017032041 13 153 0.0 4.8 0.03 1.85 1.85 94 1007.5
20211017031534 13 153 1.6 4.8 0.03 1.85 1.85 94 1007.4
20211017031020 13 153 1.6 4.8 0.03 1.85 1.85 94 1007.4
20211017030528 13 128 0.0 3.2 0.03 1.85 1.85 94 1007.4
20211017030032 13 128 0.0 3.2 0.08 1.85 1.85 94 1007.8
20211017025519 13 128 0.0 3.2 0.08 1.85 1.85 94 1007.6
20211017025019 13 128 0.0 1.6 0.13 1.85 1.85 94 1007.1
20211017024526 13 128 0.0 1.6 0.18 1.85 1.85 94 1007.4
20211017024018 13 128 0.0 1.6 0.20 1.85 1.85 94 1007.2
20211017023517 13 128 0.0 1.6 0.20 1.83 1.83 94 1007.3
20211017023031 13 128 0.0 3.2 0.23 1.83 1.83 94 1007.3
20211017022517 14 128 0.0 3.2 0.25 1.83 1.83 94 1007.2
20211017022016 14 128 0.0 3.2 0.28 1.83 1.83 94 1007.0
20211017021535 14 128 0.0 4.8 0.30 1.83 1.83 94 1007.0
20211017021015 14 136 0.0 4.8 0.30 1.83 1.83 94 1007.1
20211017020526 14 188 0.0 3.2 0.33 1.83 1.83 94 1007.3
20211017020029 14 188 0.0 6.4 0.28 1.78 1.78 94 1007.7
20211017015514 14 188 1.6 6.4 0.28 1.78 1.78 94 1008.3
20211017015019 14 163 1.6 3.2 0.25 1.73 1.73 94 1008.0
20211017014520 14 107 0.0 3.2 0.20 1.68 1.68 94 1007.5
20211017014014 14 107 0.0 1.6 0.18 1.65 1.65 93 1007.3
20211017013513 14 107 0.0 6.4 0.18 1.63 1.63 93 1007.2
20211017013013 14 108 1.6 9.7 0.18 1.60 1.60 93 1006.6
20211017012512 14 112 3.2 9.7 0.15 1.57 1.57 93 1006.6
20211017012012 14 113 1.6 4.8 0.13 1.55 1.55 93 1006.6
20211017011534 14 315 0.0 3.2 0.10 1.52 1.52 93 1006.7
20211017011011 14 315 0.0 3.2 0.13 1.52 1.52 93 1006.9
20211017010511 14 315 0.0 1.6 0.10 1.50 1.50 93 1006.2
20211017010030 14 315 0.0 6.4 0.10 1.50 1.50 93 1005.9
20211017005510 14 315 0.0 8.0 0.13 1.50 1.50 93 1005.6
20211017005008 14 342 3.2 8.0 0.10 1.45 1.45 93 1005.2
20211017004508 15 298 3.2 4.8 0.13 1.45 1.45 93 1005.6
20211017004023 15 282 0.0 3.2 0.13 1.45 1.45 93 1005.7
20211017003507 15 282 0.0 3.2 0.13 1.42 1.42 94 1005.6
20211017003033 15 282 0.0 3.2 0.15 1.42 1.42 94 1005.6
20211017002506 15 282 0.0 4.8 0.20 1.42 1.42 94 1005.2
20211017002007 15 278 0.0 6.4 0.20 1.42 1.42 94 1005.7
20211017001509 15 278 3.2 14.5 0.20 1.42 1.42 94 1005.4
20211017001010 15 351 6.4 14.5 0.20 1.40 1.40 93 1005.0
20211017000503 15 355 4.8 12.9 0.23 1.40 1.40 94 1005.5
20211017000004 15 323 3.2 12.9 0.23 1.40 1.40 94 1005.5
20211016235501 15 292 4.8 11.3 0.20 1.37 1.37 94 1005.2
20211016235003 15 319 3.2 11.3 0.20 1.37 1.37 94 1005.4
20211016234504 15 301 3.2 9.7 0.20 1.35 1.35 95 1005.4
20211016234003 15 298 3.2 8.0 0.20 1.35 1.35 95 1004.9
20211016233503 16 242 1.6 16.1 0.23 1.32 1.32 95 1004.7
20211016233244 16 138 6.4 16.1 0.25 1.30 1.30 95 1004.9
20211016232600 16 240 3.2 11.3 0.23 1.24 1.24 95 1005.1
20211016232101 16 195 4.8 8.0 0.23 1.22 1.22 94 1004.9
20211016231625 16 203 1.6 4.8 0.23 1.22 1.22 94 1004.6
20211016231059 16 203 1.6 4.8 0.23 1.19 1.19 94 1004.6
20211016230559 16 207 1.6 4.8 0.23 1.19 1.19 94 1004.3
20211016230118 16 209 0.0 6.4 0.20 1.17 1.17 94 1004.4
20211016225559 16 208 1.6 8.0 0.23 1.17 1.17 94 1004.4
20211016225058 16 184 3.2 9.7 0.23 1.17 1.17 94 1004.1
20211016224609 16 221 3.2 9.7 0.20 1.14 1.14 94 1003.9
20211016224102 16 204 1.6 9.7 0.20 1.14 1.14 94 1004.1
20211016223614 16 171 4.8 9.7 0.18 1.12 1.12 93 1004.5
20211016223232 16 201 3.2 9.7 0.13 1.04 1.04 93 1004.2
20211016222559 16 214 3.2 9.7 0.10 1.02 1.02 93 1003.6
20211016222104 16 209 1.6 9.7 0.08 0.99 0.99 93 1003.3
20211016221619 16 213 3.2 9.7 0.10 0.99 0.99 93 1003.1
20211016221140 16 209 1.6 8.0 0.08 0.97 0.97 93 1003.2
20211016220603 16 206 1.6 9.7 0.10 0.97 0.97 93 1003.0
20211016220136 16 192 3.2 9.7 0.13 0.97 0.97 93 1003.0
20211016215553 16 180 3.2 8.0 0.10 0.94 0.94 93 1002.8
20211016215052 16 174 4.8 11.3 0.13 0.94 0.94 93 1003.0
20211016214639 16 221 3.2 11.3 0.28 0.94 0.94 93 1002.9
20211016214051 17 210 3.2 12.9 0.46 0.94 0.94 93 1002.7
20211016213550 17 210 4.8 14.5 0.51 0.94 0.94 93 1002.7
20211016213138 17 171 6.4 14.5 0.51 0.91 0.91 93 1003.0
20211016212601 17 192 6.4 11.3 0.53 0.91 0.91 93 1003.0
20211016212049 17 183 4.8 12.9 0.53 0.91 0.91 93 1002.7
20211016211555 17 213 4.8 11.3 0.51 0.89 0.89 93 1002.5
20211016211047 17 224 3.2 11.3 0.51 0.89 0.89 92 1002.2
20211016210555 17 261 1.6 6.4 0.48 0.86 0.86 92 1002.2
20211016210137 17 297 1.6 6.4 0.46 0.84 0.84 91 1001.9
20211016205549 17 298 1.6 9.7 0.46 0.84 0.84 90 1001.9
20211016205103 18 215 1.6 16.1 0.43 0.81 0.81 88 1001.9
20211016204608 18 342 4.8 24.1 0.28 0.66 0.66 86 1001.9
20211016204051 19 288 11.3 29.0 0.08 0.46 0.46 84 1002.0
20211016203551 20 247 12.9 33.8 0.05 0.43 0.43 80 1001.9
20211016203115 22 331 8.0 29.0 0.03 0.41 0.41 76 1001.7
20211016202546 23 167 12.9 29.0 0.00 0.38 0.38 74 1001.7
20211016202052 23 252 6.4 16.1 0.00 0.38 0.38 75 1000.5
20211016201611 23 140 4.8 16.1 0.00 0.38 0.38 73 1000.1
20211016201053 24 149 3.2 17.7 0.00 0.38 0.38 74 1000.2
20211016200545 24 166 4.8 29.0 0.00 0.38 0.38 72 1000.3
20211016200123 25 198 6.4 16.1 0.00 0.38 0.38 71 1000.2
20211016195542 25 179 8.0 16.1 0.00 0.38 0.38 71 1000.7
20211016195040 24 126 6.4 19.3 0.00 0.38 0.38 72 1000.9
20211016194600 24 217 4.8 19.3 0.00 0.38 0.38 73 1001.2
20211016194041 24 202 6.4 20.9 0.00 0.38 0.38 73 1001.3
20211016193541 24 223 8.0 20.9 0.00 0.38 0.38 72 1001.3
20211016193046 24 197 11.3 24.1 0.00 0.38 0.38 73 1001.5
20211016192536 24 222 8.0 27.4 0.00 0.38 0.38 72 1001.6
20211016192037 23 207 11.3 27.4 0.00 0.38 0.38 73 1001.7
20211016191615 23 165 6.4 19.3 0.00 0.38 0.38 74 1001.7
20211016191039 23 146 8.0 16.1 0.00 0.38 0.38 76 1001.6
20211016190536 23 121 8.0 16.1 0.00 0.38 0.38 75 1001.7
20211016190115 23 155 4.8 24.1 0.00 0.38 0.38 74 1001.8
20211016185533 23 210 8.0 24.1 0.00 0.38 0.38 73 1001.9
20211016185053 23 177 6.4 20.9 0.00 0.38 0.38 72 1001.8
20211016184607 24 158 4.8 14.5 0.00 0.38 0.38 72 1001.9
20211016184029 24 180 4.8 19.3 0.00 0.38 0.38 73 1001.9
20211016183532 23 186 6.4 19.3 0.00 0.38 0.38 75 1002.0
20211016183028 23 228 3.2 16.1 0.00 0.38 0.38 76 1002.3
20211016182536 23 208 8.0 16.1 0.00 0.38 0.38 75 1002.3
20211016182024 22 161 6.4 19.3 0.00 0.38 0.38 78 1002.4
20211016181621 22 139 8.0 24.1 0.00 0.38 0.38 76 1002.4
20211016181026 22 186 4.8 22.5 0.00 0.38 0.38 77 1002.6
20211016180532 22 163 8.0 17.7 0.00 0.38 0.38 76 1002.6
20211016180045 22 188 6.4 25.7 0.00 0.38 0.38 75 1002.7
20211016175526 22 194 11.3 33.8 0.00 0.38 0.38 75 1002.7
20211016175028 23 182 9.7 33.8 0.00 0.38 0.38 75 1002.8
20211016174539 23 175 12.9 32.2 0.00 0.38 0.38 76 1002.8
20211016174018 22 172 6.4 17.7 0.00 0.38 0.38 77 1003.1
20211016173519 22 177 6.4 16.1 0.00 0.38 0.38 79 1003.3
20211016173051 21 187 6.4 16.1 0.00 0.38 0.38 79 1003.3
20211016172520 21 165 6.4 14.5 0.00 0.38 0.38 79 1003.6
20211016172015 21 134 6.4 16.1 0.00 0.38 0.38 79 1003.5
20211016171544 22 173 4.8 16.1 0.00 0.38 0.38 79 1003.6
20211016171017 22 173 6.4 12.9 0.00 0.38 0.38 78 1003.9
20211016170512 22 150 3.2 9.7 0.00 0.38 0.38 79 1003.9
20211016170012 22 196 4.8 12.9 0.00 0.38 0.38 79 1004.0
20211016165511 21 162 4.8 12.9 0.00 0.38 0.38 79 1004.0
20211016165010 21 184 8.0 14.5 0.00 0.38 0.38 79 1004.2
20211016164526 21 210 3.2 9.7 0.00 0.38 0.38 81 1004.3
20211016164011 21 163 4.8 11.3 0.00 0.38 0.38 80 1004.4
20211016163508 21 191 4.8 12.9 0.00 0.38 0.38 80 1004.4
20211016163008 21 186 4.8 12.9 0.00 0.38 0.38 80 1004.6
20211016162507 21 229 6.4 12.9 0.00 0.38 0.38 78 1004.6
20211016162006 21 156 6.4 16.1 0.00 0.38 0.38 80 1004.6
20211016161506 21 163 8.0 16.1 0.00 0.38 0.38 80 1004.7
20211016161005 21 224 4.8 19.3 0.00 0.38 0.38 81 1004.7
20211016160503 20 194 6.4 16.1 0.00 0.38 0.38 81 1004.9
20211016160008 21 166 6.4 22.5 0.00 0.38 0.38 80 1005.0
20211016155504 21 221 11.3 27.4 0.00 0.38 0.38 78 1005.2